| time (UTC) | temp F | wind direction | speed MPH | gust MPH | rain 1hr in | rain 24hr in | rain mn in | humidity % | barometer mb |
| 20260906193110 | 68 | 261 | 1.0 | 8.0 | 0.00 | 0.00 | 0.00 | 77 | 1015.5 |
| 20260906192551 | 67 | 236 | 2.0 | 8.0 | 0.00 | 0.00 | 0.00 | 77 | 1015.6 |
| 20260906192055 | 67 | 250 | 1.0 | 10.0 | 0.00 | 0.00 | 0.00 | 78 | 1015.6 |
| 20260906191621 | 67 | 196 | 3.0 | 11.0 | 0.00 | 0.00 | 0.00 | 77 | 1015.6 |
| 20260906191055 | 67 | 195 | 2.0 | 11.0 | 0.00 | 0.00 | 0.00 | 77 | 1015.6 |
| 20260906190552 | 66 | 201 | 3.0 | 8.0 | 0.00 | 0.00 | 0.00 | 78 | 1015.7 |
| 20260906190106 | 66 | 198 | 3.0 | 8.0 | 0.00 | 0.00 | 0.00 | 79 | 1015.7 |
| 20260906185551 | 66 | 0 | 2.0 | 8.0 | 0.00 | 0.00 | 0.00 | 80 | 1015.8 |
| 20260906185054 | 66 | 239 | 3.0 | 8.0 | 0.00 | 0.00 | 0.00 | 78 | 1015.8 |
| 20260906184601 | 66 | 254 | 2.0 | 7.0 | 0.00 | 0.00 | 0.00 | 79 | 1015.8 |
| 20260906184054 | 66 | 257 | 1.0 | 7.0 | 0.00 | 0.00 | 0.00 | 79 | 1015.8 |
| 20260906183554 | 66 | 0 | 1.0 | 7.0 | 0.00 | 0.00 | 0.00 | 80 | 1015.8 |
| 20260906183106 | 65 | 0 | 2.0 | 7.0 | 0.00 | 0.00 | 0.00 | 80 | 1015.8 |
| 20260906182557 | 65 | 274 | 2.0 | 7.0 | 0.00 | 0.00 | 0.00 | 80 | 1015.8 |
| 20260906182051 | 65 | 252 | 3.0 | 7.0 | 0.00 | 0.00 | 0.00 | 80 | 1015.9 |
| 20260906181607 | 65 | 234 | 2.0 | 5.0 | 0.00 | 0.00 | 0.00 | 80 | 1015.9 |
| 20260906181054 | 65 | 234 | 2.0 | 7.0 | 0.00 | 0.00 | 0.00 | 81 | 1015.9 |
| 20260906180552 | 64 | 203 | 2.0 | 8.0 | 0.00 | 0.00 | 0.00 | 82 | 1015.9 |
| 20260906180104 | 64 | 244 | 1.0 | 8.0 | 0.00 | 0.00 | 0.00 | 82 | 1015.8 |
| 20260906175554 | 64 | 206 | 3.0 | 9.0 | 0.00 | 0.00 | 0.00 | 82 | 1015.9 |
| 20260906175058 | 64 | 249 | 2.0 | 9.0 | 0.00 | 0.00 | 0.00 | 83 | 1016.0 |
| 20260906174612 | 64 | 216 | 2.0 | 8.0 | 0.00 | 0.00 | 0.00 | 82 | 1015.9 |
| 20260906174056 | 64 | 0 | 1.0 | 7.0 | 0.00 | 0.00 | 0.00 | 83 | 1015.9 |
| 20260906173555 | 64 | 237 | 3.0 | 7.0 | 0.00 | 0.00 | 0.00 | 83 | 1015.9 |
| 20260906173109 | 64 | 231 | 2.0 | 7.0 | 0.00 | 0.00 | 0.00 | 83 | 1015.9 |
| 20260906172556 | 64 | 267 | 2.0 | 7.0 | 0.00 | 0.00 | 0.00 | 83 | 1015.9 |
| 20260906172052 | 64 | 214 | 1.0 | 8.0 | 0.00 | 0.00 | 0.00 | 83 | 1015.8 |
| 20260906171604 | 64 | 0 | 2.0 | 9.0 | 0.00 | 0.00 | 0.00 | 83 | 1015.8 |
| 20260906171051 | 63 | 223 | 2.0 | 10.0 | 0.00 | 0.00 | 0.00 | 82 | 1015.8 |
| 20260906170554 | 63 | 186 | 2.0 | 10.0 | 0.00 | 0.00 | 0.00 | 83 | 1015.8 |
| 20260906170115 | 62 | 136 | 3.0 | 8.0 | 0.00 | 0.00 | 0.00 | 83 | 1015.8 |
| 20260906165554 | 62 | 157 | 3.0 | 7.0 | 0.00 | 0.00 | 0.00 | 83 | 1015.9 |
| 20260906165052 | 62 | 214 | 1.0 | 7.0 | 0.00 | 0.00 | 0.00 | 84 | 1015.8 |
| 20260906164602 | 61 | 188 | 4.0 | 7.0 | 0.00 | 0.00 | 0.00 | 83 | 1015.9 |
| 20260906164054 | 61 | 296 | 0.0 | 6.0 | 0.00 | 0.00 | 0.00 | 85 | 1015.8 |
| 20260906163552 | 61 | 0 | 2.0 | 5.0 | 0.00 | 0.00 | 0.00 | 85 | 1015.8 |
| 20260906163107 | 60 | 0 | 3.0 | 5.0 | 0.00 | 0.00 | 0.00 | 85 | 1015.9 |
| 20260906162551 | 60 | 205 | 2.0 | 5.0 | 0.00 | 0.00 | 0.00 | 86 | 1015.9 |
| 20260906162053 | 60 | 0 | 2.0 | 7.0 | 0.00 | 0.00 | 0.00 | 86 | 1015.9 |
| 20260906161607 | 60 | 148 | 1.0 | 7.0 | 0.00 | 0.00 | 0.00 | 86 | 1016.0 |
| 20260906161051 | 60 | 180 | 2.0 | 6.0 | 0.00 | 0.00 | 0.00 | 86 | 1016.0 |
| 20260906160554 | 59 | 229 | 1.0 | 8.0 | 0.00 | 0.00 | 0.00 | 87 | 1016.0 |
| 20260906160106 | 59 | 180 | 3.0 | 9.0 | 0.00 | 0.00 | 0.00 | 87 | 1016.0 |
| 20260906155552 | 59 | 153 | 4.0 | 9.0 | 0.00 | 0.00 | 0.00 | 87 | 1016.0 |
| 20260906155051 | 59 | 161 | 2.0 | 8.0 | 0.00 | 0.00 | 0.00 | 87 | 1016.1 |
| 20260906154601 | 59 | 203 | 3.0 | 9.0 | 0.00 | 0.00 | 0.00 | 87 | 1016.1 |
| 20260906154055 | 59 | 0 | 2.0 | 9.0 | 0.00 | 0.00 | 0.00 | 87 | 1016.1 |
| 20260906153555 | 59 | 140 | 4.0 | 9.0 | 0.00 | 0.00 | 0.00 | 87 | 1016.1 |
| 20260906153123 | 59 | 160 | 3.0 | 7.0 | 0.00 | 0.00 | 0.00 | 87 | 1016.0 |
| 20260906152551 | 59 | 180 | 2.0 | 7.0 | 0.00 | 0.00 | 0.00 | 87 | 1016.0 |
| 20260906152054 | 59 | 223 | 1.0 | 7.0 | 0.00 | 0.00 | 0.00 | 87 | 1016.1 |
| 20260906151602 | 59 | 250 | 2.0 | 10.0 | 0.00 | 0.00 | 0.00 | 87 | 1016.1 |
| 20260906151052 | 59 | 248 | 1.0 | 10.0 | 0.00 | 0.00 | 0.00 | 88 | 1016.1 |
| 20260906150554 | 59 | 178 | 3.0 | 10.0 | 0.00 | 0.00 | 0.00 | 88 | 1016.1 |
| 20260906150107 | 58 | 135 | 4.0 | 10.0 | 0.00 | 0.00 | 0.00 | 88 | 1016.1 |
| 20260906145558 | 58 | 155 | 3.0 | 10.0 | 0.00 | 0.00 | 0.00 | 88 | 1016.1 |
| 20260906145059 | 58 | 156 | 4.0 | 7.0 | 0.00 | 0.00 | 0.00 | 89 | 1016.0 |
| 20260906144617 | 58 | 150 | 3.0 | 7.0 | 0.00 | 0.00 | 0.00 | 89 | 1015.8 |
| 20260906144056 | 58 | 182 | 2.0 | 7.0 | 0.00 | 0.00 | 0.00 | 89 | 1015.9 |
| 20260906143556 | 58 | 210 | 2.0 | 7.0 | 0.00 | 0.00 | 0.00 | 89 | 1015.8 |
| 20260906143107 | 58 | 215 | 2.0 | 7.0 | 0.00 | 0.00 | 0.00 | 89 | 1015.8 |
| 20260906142556 | 58 | 174 | 1.0 | 7.0 | 0.00 | 0.00 | 0.00 | 89 | 1015.6 |
| 20260906142056 | 58 | 180 | 1.0 | 5.0 | 0.00 | 0.00 | 0.00 | 89 | 1015.6 |
| 20260906141616 | 58 | 232 | 1.0 | 5.0 | 0.00 | 0.00 | 0.00 | 89 | 1015.5 |
| 20260906141059 | 58 | 0 | 1.0 | 6.0 | 0.00 | 0.00 | 0.00 | 89 | 1015.5 |
| 20260906140556 | 58 | 148 | 3.0 | 6.0 | 0.00 | 0.00 | 0.00 | 89 | 1015.4 |
| 20260906140110 | 58 | 172 | 2.0 | 6.0 | 0.00 | 0.00 | 0.00 | 89 | 1015.4 |
| 20260906135556 | 58 | 178 | 3.0 | 6.0 | 0.00 | 0.00 | 0.00 | 89 | 1015.3 |
| 20260906135053 | 58 | 167 | 2.0 | 4.0 | 0.00 | 0.00 | 0.00 | 89 | 1015.3 |
| 20260906134631 | 58 | 169 | 0.0 | 7.0 | 0.00 | 0.00 | 0.00 | 89 | 1015.2 |
| 20260906134056 | 58 | 178 | 2.0 | 7.0 | 0.00 | 0.00 | 0.00 | 89 | 1015.3 |
| 20260906133556 | 58 | 165 | 3.0 | 8.0 | 0.00 | 0.00 | 0.00 | 89 | 1015.2 |
| 20260906133107 | 58 | 159 | 3.0 | 8.0 | 0.00 | 0.00 | 0.00 | 89 | 1015.1 |
| 20260906132558 | 58 | 195 | 2.0 | 8.0 | 0.00 | 0.00 | 0.00 | 89 | 1015.1 |
| 20260906132057 | 58 | 161 | 3.0 | 10.0 | 0.00 | 0.00 | 0.00 | 89 | 1015.1 |
| 20260906131609 | 58 | 173 | 4.0 | 10.0 | 0.00 | 0.00 | 0.00 | 89 | 1015.0 |
| 20260906131055 | 58 | 175 | 4.0 | 8.0 | 0.00 | 0.00 | 0.00 | 89 | 1015.1 |
| 20260906130556 | 58 | 199 | 3.0 | 7.0 | 0.00 | 0.00 | 0.00 | 89 | 1015.0 |
| 20260906130107 | 58 | 167 | 2.0 | 6.0 | 0.00 | 0.00 | 0.00 | 89 | 1015.0 |
| 20260906125600 | 58 | 182 | 2.0 | 8.0 | 0.00 | 0.00 | 0.00 | 89 | 1014.9 |
| 20260906125054 | 58 | 178 | 3.0 | 8.0 | 0.00 | 0.00 | 0.00 | 89 | 1014.9 |
| 20260906124609 | 58 | 149 | 2.0 | 8.0 | 0.00 | 0.00 | 0.00 | 89 | 1014.9 |
| 20260906124057 | 58 | 158 | 4.0 | 9.0 | 0.00 | 0.00 | 0.00 | 89 | 1014.9 |
| 20260906123556 | 58 | 156 | 4.0 | 9.0 | 0.00 | 0.00 | 0.00 | 89 | 1014.9 |
| 20260906123102 | 58 | 146 | 3.0 | 11.0 | 0.00 | 0.00 | 0.00 | 89 | 1014.9 |
| 20260906122556 | 58 | 161 | 4.0 | 11.0 | 0.00 | 0.00 | 0.00 | 90 | 1014.7 |
| 20260906122056 | 58 | 182 | 4.0 | 7.0 | 0.00 | 0.00 | 0.00 | 90 | 1014.7 |
| 20260906121607 | 58 | 159 | 2.0 | 7.0 | 0.00 | 0.00 | 0.00 | 90 | 1014.6 |
| 20260906121057 | 58 | 154 | 3.0 | 7.0 | 0.00 | 0.00 | 0.00 | 90 | 1014.6 |
| 20260906120554 | 58 | 181 | 3.0 | 7.0 | 0.00 | 0.00 | 0.00 | 90 | 1014.7 |
| 20260906120108 | 58 | 174 | 3.0 | 7.0 | 0.00 | 0.00 | 0.00 | 90 | 1014.9 |
| 20260906115554 | 58 | 155 | 2.0 | 7.0 | 0.00 | 0.00 | 0.00 | 90 | 1014.9 |
| 20260906115054 | 58 | 151 | 3.0 | 6.0 | 0.00 | 0.00 | 0.00 | 90 | 1014.8 |
| 20260906114631 | 58 | 163 | 2.0 | 9.0 | 0.00 | 0.00 | 0.00 | 90 | 1014.9 |
| 20260906114054 | 58 | 125 | 3.0 | 9.0 | 0.00 | 0.00 | 0.00 | 91 | 1014.9 |
| 20260906113551 | 58 | 178 | 4.0 | 7.0 | 0.00 | 0.00 | 0.00 | 91 | 1014.9 |
| 20260906113101 | 58 | 178 | 3.0 | 7.0 | 0.00 | 0.00 | 0.00 | 91 | 1014.9 |
| 20260906112551 | 58 | 156 | 3.0 | 7.0 | 0.00 | 0.00 | 0.00 | 91 | 1014.9 |
| 20260906112055 | 58 | 165 | 3.0 | 7.0 | 0.00 | 0.00 | 0.00 | 91 | 1014.9 |
| 20260906111626 | 58 | 0 | 1.0 | 6.0 | 0.00 | 0.00 | 0.00 | 91 | 1014.8 |
| 20260906111058 | 58 | 157 | 2.0 | 6.0 | 0.00 | 0.00 | 0.00 | 92 | 1014.7 |
| 20260906110553 | 58 | 171 | 2.0 | 6.0 | 0.00 | 0.00 | 0.00 | 92 | 1014.6 |
| 20260906105552 | 57 | 160 | 2.0 | 5.0 | 0.00 | 0.00 | 0.00 | 92 | 1014.7 |
| 20260906105055 | 57 | 0 | 1.0 | 5.0 | 0.00 | 0.00 | 0.00 | 92 | 1014.7 |
| 20260906104607 | 57 | 140 | 1.0 | 5.0 | 0.00 | 0.00 | 0.00 | 92 | 1014.7 |
| 20260906104055 | 57 | 0 | 1.0 | 5.0 | 0.00 | 0.00 | 0.00 | 92 | 1014.7 |
| 20260906103553 | 57 | 146 | 1.0 | 5.0 | 0.00 | 0.00 | 0.00 | 92 | 1014.7 |
| 20260906103107 | 57 | 126 | 0.0 | 4.0 | 0.00 | 0.00 | 0.00 | 92 | 1014.7 |
| 20260906102552 | 57 | 0 | 1.0 | 4.0 | 0.00 | 0.00 | 0.00 | 92 | 1014.9 |
| 20260906102051 | 57 | 0 | 0.0 | 1.0 | 0.00 | 0.00 | 0.00 | 92 | 1014.7 |
| 20260906101601 | 57 | 0 | 0.0 | 2.0 | 0.00 | 0.00 | 0.00 | 91 | 1014.7 |
| 20260906101056 | 57 | 0 | 0.0 | 2.0 | 0.00 | 0.00 | 0.00 | 91 | 1014.7 |
| 20260906100554 | 58 | 163 | 0.0 | 4.0 | 0.00 | 0.00 | 0.00 | 91 | 1014.6 |
| 20260906100100 | 58 | 0 | 0.0 | 6.0 | 0.00 | 0.00 | 0.00 | 92 | 1014.6 |
| 20260906095554 | 58 | 169 | 1.0 | 6.0 | 0.00 | 0.00 | 0.00 | 92 | 1014.4 |
| 20260906095054 | 58 | 268 | 3.0 | 6.0 | 0.00 | 0.00 | 0.00 | 92 | 1014.5 |
| 20260906094601 | 58 | 224 | 1.0 | 5.0 | 0.00 | 0.00 | 0.00 | 92 | 1014.5 |
| 20260906094055 | 58 | 0 | 1.0 | 5.0 | 0.00 | 0.00 | 0.00 | 92 | 1014.7 |
| 20260906093551 | 58 | 245 | 0.0 | 7.0 | 0.00 | 0.00 | 0.00 | 92 | 1014.7 |
| 20260906093108 | 58 | 193 | 1.0 | 7.0 | 0.00 | 0.00 | 0.00 | 92 | 1014.7 |
| 20260906092555 | 58 | 211 | 2.0 | 7.0 | 0.00 | 0.00 | 0.00 | 91 | 1014.7 |
| 20260906092056 | 58 | 244 | 2.0 | 5.0 | 0.00 | 0.00 | 0.00 | 91 | 1014.7 |
| 20260906091607 | 58 | 233 | 2.0 | 7.0 | 0.00 | 0.00 | 0.00 | 91 | 1014.7 |
| 20260906091054 | 58 | 223 | 1.0 | 10.0 | 0.00 | 0.00 | 0.00 | 91 | 1014.8 |
| 20260906090551 | 58 | 241 | 2.0 | 10.0 | 0.00 | 0.00 | 0.00 | 91 | 1014.8 |
| 20260906090115 | 58 | 219 | 0.0 | 7.0 | 0.00 | 0.00 | 0.00 | 91 | 1014.9 |
| 20260906085551 | 58 | 229 | 1.0 | 7.0 | 0.00 | 0.00 | 0.00 | 91 | 1014.9 |
| 20260906085051 | 58 | 214 | 2.0 | 8.0 | 0.00 | 0.00 | 0.00 | 91 | 1014.9 |
| 20260906084611 | 58 | 0 | 2.0 | 8.0 | 0.00 | 0.00 | 0.00 | 91 | 1015.0 |
| 20260906084053 | 59 | 234 | 1.0 | 5.0 | 0.00 | 0.00 | 0.00 | 91 | 1014.9 |
| 20260906083555 | 59 | 240 | 1.0 | 7.0 | 0.00 | 0.00 | 0.00 | 91 | 1014.9 |
| 20260906083103 | 59 | 221 | 1.0 | 7.0 | 0.00 | 0.00 | 0.00 | 90 | 1014.9 |
| 20260906082550 | 59 | 238 | 2.0 | 9.0 | 0.00 | 0.00 | 0.00 | 90 | 1014.7 |
| 20260906082058 | 59 | 238 | 3.0 | 9.0 | 0.00 | 0.00 | 0.00 | 90 | 1014.8 |
| 20260906081606 | 59 | 0 | 2.0 | 8.0 | 0.00 | 0.00 | 0.00 | 90 | 1014.9 |
| 20260906081055 | 59 | 201 | 2.0 | 8.0 | 0.00 | 0.00 | 0.00 | 89 | 1014.8 |
| 20260906080552 | 59 | 201 | 1.0 | 5.0 | 0.00 | 0.00 | 0.00 | 89 | 1014.9 |
| 20260906075554 | 59 | 236 | 2.0 | 7.0 | 0.00 | 0.00 | 0.00 | 89 | 1014.8 |
| 20260906075054 | 59 | 212 | 1.0 | 4.0 | 0.00 | 0.00 | 0.00 | 88 | 1014.9 |
| 20260906074612 | 59 | 236 | 0.0 | 4.0 | 0.00 | 0.00 | 0.00 | 87 | 1014.9 |
| 20260906074055 | 59 | 212 | 1.0 | 4.0 | 0.00 | 0.00 | 0.00 | 87 | 1014.9 |
| 20260906073556 | 59 | 181 | 0.0 | 3.0 | 0.00 | 0.00 | 0.00 | 86 | 1014.9 |
| 20260906073110 | 59 | 0 | 0.0 | 1.0 | 0.00 | 0.00 | 0.00 | 85 | 1014.9 |
| 20260906072554 | 59 | 0 | 0.0 | 1.0 | 0.00 | 0.00 | 0.00 | 85 | 1014.9 |
| 20260906072054 | 59 | 139 | 0.0 | 1.0 | 0.00 | 0.00 | 0.00 | 85 | 1014.9 |
| 20260906071609 | 60 | 0 | 0.0 | 1.0 | 0.00 | 0.00 | 0.00 | 84 | 1014.7 |
| 20260906071052 | 60 | 0 | 0.0 | 2.0 | 0.00 | 0.00 | 0.00 | 84 | 1014.9 |
| 20260906070552 | 60 | 0 | 0.0 | 2.0 | 0.00 | 0.00 | 0.00 | 84 | 1014.7 |
| 20260906070132 | 60 | 0 | 0.0 | 3.0 | 0.00 | 0.00 | 0.00 | 84 | 1014.7 |
| 20260906065557 | 60 | 139 | 0.0 | 3.0 | 0.00 | 0.00 | 0.00 | 84 | 1014.8 |
| 20260906065054 | 60 | 139 | 1.0 | 3.0 | 0.00 | 0.00 | 0.00 | 84 | 1014.9 |
| 20260906064602 | 60 | 0 | 0.0 | 0.0 | 0.00 | 0.00 | 0.00 | 83 | 1014.9 |
| 20260906064053 | 60 | 0 | 0.0 | 0.0 | 0.00 | 0.00 | 0.00 | 82 | 1014.9 |
| 20260906063554 | 60 | 0 | 0.0 | 0.0 | 0.00 | 0.00 | 0.00 | 82 | 1014.9 |
| 20260906063104 | 60 | 0 | 0.0 | 0.0 | 0.00 | 0.00 | 0.00 | 82 | 1014.9 |
| 20260906062551 | 61 | 0 | 0.0 | 0.0 | 0.00 | 0.00 | 0.00 | 81 | 1014.9 |
| 20260906062055 | 61 | 0 | 0.0 | 3.0 | 0.00 | 0.00 | 0.00 | 81 | 1015.1 |
| 20260906061635 | 61 | 0 | 0.0 | 3.0 | 0.00 | 0.00 | 0.00 | 81 | 1015.0 |
| 20260906061057 | 61 | 138 | 0.0 | 0.0 | 0.00 | 0.00 | 0.00 | 80 | 1015.1 |
| 20260906060557 | 61 | 0 | 0.0 | 0.0 | 0.00 | 0.00 | 0.00 | 80 | 1015.1 |
| 20260906060104 | 61 | 0 | 0.0 | 2.0 | 0.00 | 0.00 | 0.00 | 80 | 1015.0 |
| 20260906055553 | 61 | 0 | 0.0 | 3.0 | 0.00 | 0.00 | 0.00 | 80 | 1015.1 |
| 20260906055054 | 61 | 0 | 0.0 | 3.0 | 0.00 | 0.00 | 0.00 | 80 | 1015.1 |
| 20260906054604 | 61 | 0 | 0.0 | 3.0 | 0.00 | 0.00 | 0.00 | 80 | 1015.1 |
| 20260906054058 | 61 | 0 | 0.0 | 0.0 | 0.00 | 0.00 | 0.00 | 80 | 1015.1 |
| 20260906053557 | 61 | 0 | 0.0 | 0.0 | 0.00 | 0.00 | 0.00 | 79 | 1015.1 |
| 20260906053105 | 61 | 0 | 0.0 | 0.0 | 0.00 | 0.00 | 0.00 | 79 | 1015.1 |
| 20260906052554 | 61 | 0 | 0.0 | 0.0 | 0.00 | 0.00 | 0.00 | 79 | 1015.3 |
| 20260906052057 | 61 | 0 | 0.0 | 1.0 | 0.00 | 0.00 | 0.00 | 79 | 1015.2 |
| 20260906051604 | 61 | 0 | 0.0 | 1.0 | 0.00 | 0.00 | 0.00 | 78 | 1015.2 |
| 20260906051054 | 61 | 0 | 0.0 | 0.0 | 0.00 | 0.00 | 0.00 | 78 | 1015.3 |
| 20260906050553 | 62 | 0 | 0.0 | 0.0 | 0.00 | 0.00 | 0.00 | 78 | 1015.4 |
| 20260906050116 | 62 | 0 | 0.0 | 0.0 | 0.00 | 0.00 | 0.00 | 78 | 1015.2 |
| 20260906045554 | 62 | 0 | 0.0 | 0.0 | 0.00 | 0.00 | 0.00 | 77 | 1015.3 |
| 20260906045057 | 62 | 0 | 0.0 | 0.0 | 0.00 | 0.00 | 0.00 | 77 | 1015.3 |
| 20260906044614 | 62 | 0 | 0.0 | 0.0 | 0.00 | 0.00 | 0.00 | 77 | 1015.3 |
| 20260906044057 | 62 | 0 | 0.0 | 0.0 | 0.00 | 0.00 | 0.00 | 77 | 1015.2 |
| 20260906043556 | 62 | 0 | 0.0 | 0.0 | 0.00 | 0.00 | 0.00 | 76 | 1015.3 |
| 20260906043112 | 63 | 0 | 0.0 | 0.0 | 0.00 | 0.00 | 0.00 | 76 | 1015.2 |
| 20260906042557 | 63 | 0 | 0.0 | 0.0 | 0.00 | 0.00 | 0.00 | 75 | 1015.1 |
| 20260906042057 | 63 | 0 | 0.0 | 0.0 | 0.00 | 0.00 | 0.00 | 75 | 1015.0 |
| 20260906041620 | 63 | 0 | 0.0 | 1.0 | 0.00 | 0.00 | 0.00 | 74 | 1014.9 |
| 20260906041100 | 63 | 0 | 0.0 | 3.0 | 0.00 | 0.00 | 0.00 | 74 | 1014.9 |
| 20260906040553 | 63 | 0 | 0.0 | 5.0 | 0.00 | 0.00 | 0.00 | 75 | 1014.9 |
| 20260906040120 | 63 | 0 | 0.0 | 5.0 | 0.00 | 0.00 | 0.00 | 74 | 1014.8 |
| 20260906035556 | 63 | 290 | 0.0 | 6.0 | 0.00 | 0.00 | 0.00 | 74 | 1014.8 |
| 20260906035056 | 64 | 271 | 0.0 | 6.0 | 0.00 | 0.00 | 0.00 | 74 | 1014.6 |
| 20260906034602 | 64 | 300 | 0.0 | 9.0 | 0.00 | 0.00 | 0.00 | 73 | 1014.6 |
| 20260906034056 | 64 | 296 | 1.0 | 9.0 | 0.00 | 0.00 | 0.00 | 73 | 1014.6 |
| 20260906033556 | 64 | 348 | 2.0 | 9.0 | 0.00 | 0.00 | 0.00 | 73 | 1014.6 |
| 20260906033108 | 64 | 360 | 3.0 | 7.0 | 0.00 | 0.00 | 0.00 | 76 | 1014.6 |
| 20260906032559 | 64 | 0 | 0.0 | 4.0 | 0.00 | 0.00 | 0.00 | 80 | 1014.5 |
| 20260906032056 | 64 | 0 | 0.0 | 4.0 | 0.00 | 0.00 | 0.00 | 80 | 1014.4 |
| 20260906031612 | 64 | 108 | 2.0 | 4.0 | 0.00 | 0.00 | 0.00 | 81 | 1014.4 |
| 20260906031057 | 64 | 0 | 0.0 | 4.0 | 0.00 | 0.00 | 0.00 | 81 | 1014.2 |
| 20260906030557 | 64 | 112 | 1.0 | 4.0 | 0.00 | 0.00 | 0.00 | 81 | 1014.3 |
| 20260906030113 | 64 | 143 | 2.0 | 4.0 | 0.00 | 0.00 | 0.00 | 81 | 1014.3 |
| 20260906025556 | 64 | 167 | 1.0 | 4.0 | 0.00 | 0.00 | 0.00 | 81 | 1014.3 |
| 20260906025056 | 64 | 192 | 0.0 | 3.0 | 0.00 | 0.00 | 0.00 | 81 | 1014.2 |
| 20260906024608 | 64 | 0 | 0.0 | 3.0 | 0.00 | 0.00 | 0.00 | 80 | 1014.2 |
| 20260906024059 | 64 | 215 | 0.0 | 2.0 | 0.00 | 0.00 | 0.00 | 80 | 1014.2 |
| 20260906023555 | 65 | 227 | 0.0 | 4.0 | 0.00 | 0.00 | 0.00 | 80 | 1014.2 |
| 20260906023131 | 65 | 0 | 0.0 | 5.0 | 0.00 | 0.00 | 0.00 | 80 | 1014.2 |
| 20260906022556 | 65 | 237 | 0.0 | 5.0 | 0.00 | 0.00 | 0.00 | 79 | 1014.2 |
| 20260906022059 | 65 | 0 | 1.0 | 5.0 | 0.00 | 0.00 | 0.00 | 79 | 1014.2 |
| 20260906021608 | 65 | 323 | 0.0 | 6.0 | 0.00 | 0.00 | 0.00 | 79 | 1014.2 |
| 20260906021059 | 65 | 213 | 2.0 | 6.0 | 0.00 | 0.00 | 0.00 | 78 | 1014.3 |
| 20260906020557 | 65 | 251 | 0.0 | 7.0 | 0.00 | 0.00 | 0.00 | 78 | 1014.2 |
| 20260906020101 | 65 | 222 | 1.0 | 7.0 | 0.00 | 0.00 | 0.00 | 78 | 1014.3 |
| 20260906015557 | 65 | 221 | 0.0 | 4.0 | 0.00 | 0.00 | 0.00 | 77 | 1014.3 |
| 20260906015057 | 65 | 193 | 1.0 | 7.0 | 0.00 | 0.00 | 0.00 | 77 | 1014.3 |
| 20260906014626 | 65 | 243 | 2.0 | 7.0 | 0.00 | 0.00 | 0.00 | 77 | 1014.2 |
| 20260906014054 | 65 | 271 | 2.0 | 7.0 | 0.00 | 0.00 | 0.00 | 77 | 1014.3 |
| 20260906013557 | 66 | 215 | 1.0 | 9.0 | 0.00 | 0.00 | 0.00 | 77 | 1014.3 |
| 20260906013101 | 66 | 0 | 3.0 | 9.0 | 0.00 | 0.00 | 0.00 | 76 | 1014.3 |
| 20260906012557 | 66 | 165 | 2.0 | 7.0 | 0.00 | 0.00 | 0.00 | 76 | 1014.3 |
| 20260906012056 | 66 | 218 | 2.0 | 7.0 | 0.00 | 0.00 | 0.00 | 76 | 1014.3 |
| 20260906011601 | 66 | 205 | 3.0 | 7.0 | 0.00 | 0.00 | 0.00 | 75 | 1014.3 |
| 20260906011056 | 67 | 215 | 2.0 | 7.0 | 0.00 | 0.00 | 0.00 | 75 | 1014.4 |
| 20260906010556 | 67 | 173 | 2.0 | 7.0 | 0.00 | 0.00 | 0.00 | 74 | 1014.4 |
| 20260906005557 | 67 | 166 | 1.0 | 8.0 | 0.00 | 0.00 | 0.00 | 74 | 1014.4 |
| 20260906005058 | 68 | 220 | 2.0 | 6.0 | 0.00 | 0.00 | 0.00 | 72 | 1014.5 |
| 20260906004614 | 68 | 225 | 0.0 | 9.0 | 0.00 | 0.00 | 0.00 | 73 | 1014.4 |
| 20260906004055 | 68 | 197 | 0.0 | 10.0 | 0.00 | 0.00 | 0.00 | 72 | 1014.4 |
| 20260906003557 | 68 | 188 | 2.0 | 10.0 | 0.00 | 0.00 | 0.00 | 72 | 1014.4 |
| 20260906003109 | 68 | 221 | 4.0 | 10.0 | 0.00 | 0.00 | 0.00 | 70 | 1014.4 |
| 20260906002557 | 69 | 225 | 1.0 | 8.0 | 0.00 | 0.00 | 0.00 | 69 | 1014.3 |
| 20260906002057 | 70 | 238 | 3.0 | 8.0 | 0.00 | 0.00 | 0.00 | 68 | 1014.4 |
| 20260906001603 | 70 | 333 | 2.0 | 10.0 | 0.00 | 0.00 | 0.00 | 69 | 1014.3 |
| 20260906001056 | 70 | 252 | 1.0 | 10.0 | 0.00 | 0.00 | 0.00 | 70 | 1014.3 |
| 20260906000556 | 70 | 288 | 2.0 | 9.0 | 0.00 | 0.00 | 0.00 | 70 | 1014.3 |
| 20260906000110 | 70 | 254 | 1.0 | 11.0 | 0.00 | 0.00 | 0.00 | 70 | 1014.3 |
| 20260905235556 | 69 | 0 | 2.0 | 11.0 | 0.00 | 0.00 | 0.00 | 71 | 1014.3 |
| 20260905235056 | 69 | 232 | 4.0 | 11.0 | 0.00 | 0.00 | 0.00 | 71 | 1014.3 |
| 20260905234606 | 69 | 328 | 3.0 | 13.0 | 0.00 | 0.00 | 0.00 | 73 | 1014.3 |
| 20260905234057 | 68 | 242 | 3.0 | 14.0 | 0.00 | 0.00 | 0.00 | 73 | 1014.3 |
| 20260905233557 | 68 | 263 | 5.0 | 16.0 | 0.00 | 0.00 | 0.00 | 74 | 1014.4 |
| 20260905233109 | 68 | 281 | 5.0 | 16.0 | 0.00 | 0.00 | 0.00 | 74 | 1014.4 |
| 20260905232554 | 68 | 187 | 3.0 | 10.0 | 0.00 | 0.00 | 0.00 | 76 | 1014.4 |
| 20260905232053 | 68 | 160 | 3.0 | 14.0 | 0.00 | 0.00 | 0.00 | 77 | 1014.4 |
| 20260905231607 | 68 | 238 | 5.0 | 16.0 | 0.00 | 0.00 | 0.00 | 77 | 1014.5 |
| 20260905231051 | 69 | 225 | 2.0 | 16.0 | 0.00 | 0.00 | 0.00 | 76 | 1014.6 |
| 20260905230555 | 69 | 260 | 3.0 | 9.0 | 0.00 | 0.00 | 0.00 | 76 | 1014.7 |
| 20260905230108 | 69 | 244 | 1.0 | 8.0 | 0.00 | 0.00 | 0.00 | 74 | 1014.7 |
| 20260905225552 | 69 | 155 | 2.0 | 9.0 | 0.00 | 0.00 | 0.00 | 73 | 1014.9 |
| 20260905225051 | 69 | 246 | 2.0 | 9.0 | 0.00 | 0.00 | 0.00 | 75 | 1014.9 |
| 20260905224609 | 69 | 182 | 1.0 | 7.0 | 0.00 | 0.00 | 0.00 | 75 | 1014.9 |
| 20260905224054 | 69 | 218 | 2.0 | 8.0 | 0.00 | 0.00 | 0.00 | 76 | 1015.0 |
| 20260905223554 | 68 | 169 | 4.0 | 8.0 | 0.00 | 0.00 | 0.00 | 76 | 1014.9 |
| 20260905223103 | 68 | 175 | 2.0 | 9.0 | 0.00 | 0.00 | 0.00 | 77 | 1015.1 |
| 20260905222556 | 68 | 242 | 1.0 | 11.0 | 0.00 | 0.00 | 0.00 | 76 | 1015.0 |
| 20260905222057 | 68 | 0 | 5.0 | 11.0 | 0.00 | 0.00 | 0.00 | 76 | 1015.0 |
| 20260905221606 | 68 | 149 | 2.0 | 11.0 | 0.00 | 0.00 | 0.00 | 76 | 1015.1 |
| 20260905221052 | 68 | 129 | 2.0 | 11.0 | 0.00 | 0.00 | 0.00 | 77 | 1015.2 |
| 20260905220556 | 68 | 223 | 3.0 | 13.0 | 0.00 | 0.00 | 0.00 | 77 | 1015.2 |
| 20260905220123 | 68 | 227 | 2.0 | 13.0 | 0.00 | 0.00 | 0.00 | 77 | 1015.3 |
| 20260905215554 | 68 | 238 | 3.0 | 14.0 | 0.00 | 0.00 | 0.00 | 76 | 1015.3 |
| 20260905215053 | 68 | 288 | 5.0 | 14.0 | 0.00 | 0.00 | 0.00 | 75 | 1015.3 |
| 20260905214605 | 68 | 211 | 4.0 | 13.0 | 0.00 | 0.00 | 0.00 | 75 | 1015.3 |
| 20260905214056 | 69 | 194 | 7.0 | 13.0 | 0.00 | 0.00 | 0.00 | 73 | 1015.3 |
| 20260905213554 | 70 | 216 | 2.0 | 10.0 | 0.00 | 0.00 | 0.00 | 71 | 1015.2 |
| 20260905213108 | 70 | 241 | 3.0 | 9.0 | 0.00 | 0.00 | 0.00 | 70 | 1015.2 |
| 20260905212551 | 70 | 333 | 2.0 | 11.0 | 0.00 | 0.00 | 0.00 | 69 | 1015.1 |
| 20260905212053 | 69 | 245 | 4.0 | 11.0 | 0.00 | 0.00 | 0.00 | 69 | 1015.2 |
| 20260905211611 | 70 | 246 | 4.0 | 11.0 | 0.00 | 0.00 | 0.00 | 68 | 1015.3 |
| 20260905211055 | 70 | 321 | 1.0 | 11.0 | 0.00 | 0.00 | 0.00 | 70 | 1015.4 |
| 20260905210552 | 70 | 242 | 2.0 | 8.0 | 0.00 | 0.00 | 0.00 | 70 | 1015.3 |
| 20260905210109 | 70 | 200 | 2.0 | 8.0 | 0.00 | 0.00 | 0.00 | 71 | 1015.3 |
| 20260905205551 | 69 | 221 | 2.0 | 8.0 | 0.00 | 0.00 | 0.00 | 72 | 1015.4 |
| 20260905205057 | 69 | 202 | 3.0 | 7.0 | 0.00 | 0.00 | 0.00 | 75 | 1015.4 |
| 20260905204605 | 69 | 261 | 2.0 | 9.0 | 0.00 | 0.00 | 0.00 | 74 | 1015.3 |
| 20260905204051 | 70 | 250 | 3.0 | 9.0 | 0.00 | 0.00 | 0.00 | 73 | 1015.4 |
| 20260905203556 | 70 | 243 | 1.0 | 6.0 | 0.00 | 0.00 | 0.00 | 73 | 1015.3 |
| 20260905203102 | 69 | 320 | 1.0 | 6.0 | 0.00 | 0.00 | 0.00 | 73 | 1015.3 |
| 20260905202551 | 69 | 206 | 1.0 | 7.0 | 0.00 | 0.00 | 0.00 | 74 | 1015.2 |
| 20260905202056 | 69 | 298 | 1.0 | 7.0 | 0.00 | 0.00 | 0.00 | 75 | 1015.3 |
| 20260905201604 | 68 | 181 | 2.0 | 7.0 | 0.00 | 0.00 | 0.00 | 75 | 1015.2 |
| 20260905201053 | 68 | 267 | 3.0 | 10.0 | 0.00 | 0.00 | 0.00 | 75 | 1015.4 |
| 20260905200551 | 68 | 223 | 2.0 | 10.0 | 0.00 | 0.00 | 0.00 | 76 | 1015.4 |
| 20260905200106 | 68 | 244 | 3.0 | 10.0 | 0.00 | 0.00 | 0.00 | 76 | 1015.4 |
| 20260905195552 | 68 | 268 | 2.0 | 8.0 | 0.00 | 0.00 | 0.00 | 77 | 1015.5 |
| 20260905195053 | 68 | 259 | 3.0 | 8.0 | 0.00 | 0.00 | 0.00 | 77 | 1015.5 |
| 20260905194602 | 68 | 228 | 1.0 | 9.0 | 0.00 | 0.00 | 0.00 | 78 | 1015.6 |
| 20260905194051 | 68 | 266 | 3.0 | 10.0 | 0.00 | 0.00 | 0.00 | 77 | 1015.7 |
| 20260905193550 | 68 | 178 | 3.0 | 10.0 | 0.00 | 0.00 | 0.00 | 77 | 1015.6 |